Change the Weather History Date:

Sunday, February 2, 2014

  Actual Average Record
Temperature  
Mean Temperature 22 °F -  
Max Temperature 32 °F 48 °F 68 °F (1984)
Min Temperature 12 °F 23 °F -4 °F (2011)
Degree Days  
Heating Degree Days 43    
Moisture  
Dew Point 10 °F    
Average Humidity 64    
Maximum Humidity 86    
Minimum Humidity 41    
Precipitation  
Precipitation 0.00 in - - ()
Sea Level Pressure  
Sea Level Pressure 30.17 in    
Wind  
Wind Speed 10 mph (NE)    
Max Wind Speed 15 mph    
Max Gust Speed 21 mph    
Visibility 10 miles    
Events Snow    
Averages and records for this station are not official NWS values.
T = Trace of Precipitation, MM = Missing Value Source: NWS Daily Summary

Daily Weather History Graph

Daily Weather History Graph

Search for Another Location

Airport or City:

Trip Planner

Search our weather history database for the weather conditions in past years. The results will help you decide how hot, cold, wet, or windy it might be!

Date:

Astronomy

Feb. 02, 2014 Rise Set
Actual Time 7:43 AM CST 6:12 PM CST
Civil Twilight 7:16 AM CST 6:39 PM CST
Nautical Twilight 6:45 AM CST 7:10 PM CST
Astronomical Twilight 6:15 AM CST 7:40 PM CST
Moon 9:19 AM CST (2/2) 9:49 PM CST (2/2)
Length of Visible Light 11h 23m
Length of Day
10h 29m
Waxing Crescent, 11% of the Moon is Illuminated
Feb 2
Waxing Crescent
Feb 6
First Quarter
Feb 14
Full
Feb 22
Last Quarter
Mar 1
New

Hourly Weather History & Observations

Time (CST) Temp. Windchill Dew Point Humidity Pressure Visibility Wind Dir Wind Speed Gust Speed Precip Events Conditions
12:15 AM 22.1 °F 10.6 °F 18.5 °F 86% 30.17 in 10.0 mi NE 11.5 mph - N/A   Overcast
12:35 AM 22.1 °F 10.6 °F 18.3 °F 85% 30.16 in 10.0 mi NNE 11.5 mph - N/A   Overcast
12:55 AM 22.1 °F 10.0 °F 18.5 °F 86% 30.15 in 10.0 mi NNE 12.7 mph - N/A   Overcast
1:15 AM 21.2 °F 8.9 °F 17.6 °F 86% 30.16 in 10.0 mi NNE 12.7 mph - N/A   Overcast
1:35 AM 20.8 °F 8.4 °F 16.7 °F 84% 30.17 in 10.0 mi NNE 12.7 mph - N/A   Overcast
1:55 AM 20.3 °F 8.3 °F 15.8 °F 83% 30.18 in 10.0 mi NNE 11.5 mph - N/A   Overcast
2:15 AM 19.8 °F 7.1 °F 15.4 °F 83% 30.18 in 7.0 mi North 12.7 mph - N/A Snow Light Snow
2:35 AM 19.0 °F 5.0 °F 14.9 °F 84% 30.16 in 10.0 mi North 15.0 mph 19.6 mph N/A   Overcast
2:55 AM 18.5 °F 4.9 °F 13.8 °F 82% 30.14 in 7.0 mi NNE 13.8 mph 20.7 mph N/A Snow Light Snow
3:15 AM 18.1 °F 3.9 °F 13.6 °F 83% 30.14 in 10.0 mi North 15.0 mph 19.6 mph N/A   Overcast
3:35 AM 18.0 °F 4.2 °F 13.8 °F 84% 30.14 in 10.0 mi NNE 13.8 mph - N/A   Overcast
3:55 AM 17.4 °F 2.9 °F 12.7 °F 82% 30.14 in 10.0 mi North 15.0 mph 19.6 mph N/A   Overcast
4:15 AM 17.4 °F 4.7 °F 12.9 °F 83% 30.16 in 10.0 mi North 11.5 mph 17.3 mph N/A   Overcast
4:35 AM 16.7 °F 2.6 °F 12.0 °F 82% 30.16 in 10.0 mi NNE 13.8 mph - N/A   Overcast
4:55 AM 16.7 °F 2.0 °F 12.0 °F 82% 30.16 in 10.0 mi North 15.0 mph 20.7 mph N/A   Overcast
5:15 AM 16.5 °F 2.4 °F 11.8 °F 82% 30.15 in 10.0 mi North 13.8 mph 19.6 mph N/A   Overcast
5:35 AM 16.0 °F 2.9 °F 11.5 °F 82% 30.17 in 10.0 mi North 11.5 mph - N/A   Overcast
5:55 AM 15.8 °F 4.2 °F 11.3 °F 82% 30.17 in 10.0 mi North 9.2 mph - N/A   Overcast
6:15 AM 15.4 °F 1.6 °F 11.3 °F 84% 30.16 in 10.0 mi North 12.7 mph - N/A   Overcast
6:35 AM 14.7 °F 1.4 °F 10.8 °F 84% 30.16 in 10.0 mi North 11.5 mph 19.6 mph N/A   Mostly Cloudy
6:55 AM 13.8 °F 0.2 °F 10.2 °F 86% 30.17 in 10.0 mi North 11.5 mph - N/A   Scattered Clouds
7:15 AM 13.1 °F 0.1 °F 9.5 °F 86% 30.18 in 10.0 mi North 10.4 mph - N/A   Clear
7:35 AM 12.7 °F 0.4 °F 9.1 °F 86% 30.17 in 10.0 mi North 9.2 mph - N/A   Clear
7:55 AM 12.9 °F 5.2 °F 9.0 °F 84% 30.19 in 10.0 mi North 4.6 mph - N/A   Clear
8:15 AM 13.1 °F 0.9 °F 9.1 °F 84% 30.19 in 10.0 mi North 9.2 mph - N/A   Clear
8:35 AM 14.5 °F 1.9 °F 10.0 °F 82% 30.21 in 10.0 mi North 10.4 mph - N/A   Clear
8:55 AM 16.5 °F 4.3 °F 10.6 °F 77% 30.22 in 10.0 mi North 10.4 mph - N/A   Clear
9:15 AM 16.7 °F 3.2 °F 9.7 °F 74% 30.23 in 10.0 mi NNE 12.7 mph - N/A   Clear
9:35 AM 17.4 °F 4.7 °F 9.9 °F 72% 30.23 in 10.0 mi NNE 11.5 mph 18.4 mph N/A   Clear
9:55 AM 19.0 °F 7.5 °F 10.4 °F 69% 30.25 in 10.0 mi NNE 10.4 mph - N/A   Clear
10:15 AM 19.4 °F 6.6 °F 10.2 °F 68% 30.24 in 10.0 mi NE 12.7 mph - N/A   Clear
10:35 AM 20.5 °F 9.2 °F 10.4 °F 65% 30.24 in 10.0 mi NNE 10.4 mph - N/A   Clear
10:55 AM 21.0 °F 11.4 °F 9.7 °F 62% 30.25 in 10.0 mi NNE 8.1 mph - N/A   Scattered Clouds
11:15 AM 21.6 °F 12.1 °F 10.4 °F 62% 30.25 in 10.0 mi North 8.1 mph - N/A   Mostly Cloudy
11:35 AM 22.3 °F 12.2 °F 10.0 °F 59% 30.24 in 10.0 mi NE 9.2 mph - N/A   Mostly Cloudy
11:55 AM 23.7 °F 14.7 °F 10.6 °F 57% 30.23 in 10.0 mi NE 8.1 mph - N/A   Scattered Clouds
12:15 PM 25.9 °F 19.2 °F 10.6 °F 52% 30.23 in 10.0 mi East 5.8 mph - N/A   Scattered Clouds
12:35 PM 27.5 °F 20.2 °F 10.9 °F 50% 30.22 in 10.0 mi North 6.9 mph - N/A   Mostly Cloudy
12:55 PM 27.7 °F 22.4 °F 10.6 °F 49% 30.21 in 10.0 mi NE 4.6 mph - N/A   Mostly Cloudy
1:15 PM 28.4 °F 23.3 °F 10.8 °F 48% 30.19 in 10.0 mi NNE 4.6 mph - N/A   Overcast
1:35 PM 28.2 °F 24.4 °F 11.1 °F 49% 30.18 in 10.0 mi NNE 3.5 mph - N/A   Overcast
1:55 PM 29.1 °F 24.1 °F 10.9 °F 47% 30.17 in 10.0 mi ENE 4.6 mph - N/A   Overcast
2:15 PM 29.7 °F 26.1 °F 11.3 °F 46% 30.17 in 10.0 mi ENE 3.5 mph - N/A   Overcast
2:35 PM 29.5 °F - 11.1 °F 46% 30.16 in 10.0 mi Calm Calm - N/A   Mostly Cloudy
2:55 PM 31.1 °F 26.4 °F 11.1 °F 43% 30.16 in 10.0 mi East 4.6 mph - N/A   Scattered Clouds
3:15 PM 31.5 °F 28.1 °F 11.1 °F 43% 30.16 in 10.0 mi SE 3.5 mph - N/A   Clear
3:35 PM 31.8 °F 27.3 °F 10.8 °F 42% 30.14 in 10.0 mi SSE 4.6 mph - N/A   Clear
3:55 PM 32.2 °F 28.9 °F 10.8 °F 41% 30.15 in 10.0 mi ESE 3.5 mph - N/A   Clear
4:15 PM 32.0 °F 26.4 °F 10.8 °F 41% 30.15 in 10.0 mi East 5.8 mph - N/A   Clear
4:35 PM 32.0 °F - 10.9 °F 42% 30.15 in 10.0 mi Calm Calm - N/A   Clear
4:55 PM 32.0 °F 28.7 °F 10.9 °F 42% 30.14 in 10.0 mi East 3.5 mph - N/A   Clear
5:15 PM 32.0 °F - 10.4 °F 41% 30.14 in 10.0 mi Calm Calm - N/A   Clear
5:35 PM 31.6 °F 27.0 °F 10.2 °F 41% 30.14 in 10.0 mi ESE 4.6 mph - N/A   Clear
5:55 PM 30.0 °F 26.5 °F 9.5 °F 42% 30.14 in 10.0 mi ESE 3.5 mph - N/A   Clear
6:15 PM 27.5 °F 22.2 °F 8.6 °F 45% 30.14 in 10.0 mi ESE 4.6 mph - N/A   Clear
6:35 PM 26.2 °F 19.6 °F 7.7 °F 46% 30.16 in 10.0 mi ESE 5.8 mph - N/A   Clear
6:55 PM 25.5 °F 19.9 °F 7.5 °F 47% 30.16 in 10.0 mi SE 4.6 mph - N/A   Clear
7:15 PM 25.5 °F 17.8 °F 7.7 °F 47% 30.14 in 10.0 mi ESE 6.9 mph - N/A   Clear
7:35 PM 25.0 °F 17.1 °F 6.8 °F 46% 30.15 in 10.0 mi ESE 6.9 mph - N/A   Clear
7:55 PM 23.4 °F 15.2 °F 6.1 °F 48% 30.15 in 10.0 mi SE 6.9 mph - N/A   Clear
8:15 PM 23.0 °F 13.9 °F 5.5 °F 47% 30.14 in 10.0 mi SE 8.1 mph - N/A   Clear
8:35 PM 22.5 °F 13.2 °F 4.1 °F 45% 30.14 in 10.0 mi ESE 8.1 mph - N/A   Clear
8:55 PM 20.3 °F 12.5 °F 4.1 °F 50% 30.14 in 10.0 mi SE 5.8 mph - N/A   Clear
9:15 PM 20.3 °F 11.5 °F 4.1 °F 50% 30.15 in 10.0 mi SE 6.9 mph - N/A   Clear
9:35 PM 21.2 °F 13.6 °F 4.1 °F 48% 30.16 in 10.0 mi SE 5.8 mph - N/A   Clear
9:55 PM 20.8 °F 11.2 °F 4.5 °F 49% 30.17 in 10.0 mi SSE 8.1 mph - N/A   Clear
10:15 PM 21.2 °F 12.6 °F 4.6 °F 49% 30.17 in 10.0 mi SE 6.9 mph - N/A   Clear
10:35 PM 17.8 °F 6.6 °F 3.6 °F 54% 30.18 in 10.0 mi SSE 9.2 mph - N/A   Clear
10:55 PM 15.4 °F 4.6 °F 3.9 °F 60% 30.18 in 10.0 mi SSE 8.1 mph - N/A   Clear
11:15 PM 14.9 °F 3.1 °F 4.5 °F 63% 30.18 in 10.0 mi South 9.2 mph - N/A   Clear
11:35 PM 18.5 °F 8.4 °F 8.4 °F 65% 30.18 in 10.0 mi SSE 8.1 mph - N/A   Scattered Clouds
11:55 PM 18.7 °F 7.8 °F 10.9 °F 72% 30.16 in 10.0 mi SSE 9.2 mph - N/A   Scattered Clouds